TimeFrame on Redefined Productions
Outwar Sigil TimeFrame

Sigil TimeFrame

98 Gods Updated: 2019-10-19 23:20:02
NameTime LeftWindow Opens
Old World Drake7d 19:182019-10-12 03:39:00
Animated Captain7d 19:112019-10-12 03:46:00
Crolvak, the Fire Master1d 09:302019-10-18 13:27:00
Sylvanna TorLai1d 03:482019-10-18 19:09:00
Kro Shuk, Doomslayer1d 01:172019-10-18 21:40:00
Nayark the Mummified Sorcerer0d 19:342019-10-19 03:23:00
King Ashnar, Lord of the Unliving0d 16:142019-10-19 06:43:00
Archdevil Yirkon0d 15:362019-10-19 07:21:00
Great Lord Ganeshan0d 14:162019-10-19 08:41:00
Dreg nor, Keeper of the Infernal Essence0d 12:352019-10-19 10:22:00
Anguish0d 12:332019-10-19 10:24:00
Gorganus of the Wood0d 09:492019-10-19 13:08:00
Raiyar, the Shadow Master0d 08:472019-10-19 14:10:00
Smoot the Yeti0d 08:042019-10-19 14:53:00
Lord Xordam0d 07:482019-10-19 15:09:00
Rancid, Lord of Thugs0d 07:432019-10-19 15:14:00
Hyrak, Bringer of Nightmares0d 06:432019-10-19 16:14:00
Ebliss, Fallen Angel of Despair0d 06:342019-10-19 16:23:00
Ganja the Stone Golem0d 06:312019-10-19 16:26:00
Bloodchill the Grizzly0d 00:352019-10-19 22:22:00
Tsort0d 00:022019-10-19 22:55:00
Lady Ariella0d 01:232019-10-20 00:21:00
Shadow0d 01:382019-10-20 00:36:00
Ancient Magus Tarkin0d 01:412019-10-20 00:39:00
Melt Bane, The Forbidden Demon Dragon0d 02:052019-10-20 01:03:00
Lord Varan0d 02:382019-10-20 01:36:00
Mistress of the Sword0d 02:422019-10-20 01:40:00
Crane0d 04:012019-10-20 02:59:00
Nafir, God of Desolation0d 04:262019-10-20 03:24:00
Samatha Dark-Soul0d 04:382019-10-20 03:36:00
Wanhiroeaz the Devourer0d 06:222019-10-20 05:20:00
Emperor Neudeus, Controller of the Universe0d 06:312019-10-20 05:29:00
Baron Mu, Dark Rider of the Undead0d 06:322019-10-20 05:30:00
Dlanod, the Crazed Chancellor0d 08:332019-10-20 07:31:00
Lady Chaos, Queen of the Abyss0d 08:572019-10-20 07:55:00
Nessam0d 09:242019-10-20 08:22:00
Brutalitar, Lord of the Underworld0d 09:392019-10-20 08:37:00
Zikkir the Dark Archer0d 10:172019-10-20 09:15:00
Tylos, The Lord Master0d 10:372019-10-20 09:35:00
Zertan, The Collector0d 11:382019-10-20 10:36:00
Freezebreed, The Frozen Manipulator0d 11:522019-10-20 10:50:00
Garland, The Lord Keeper0d 12:382019-10-20 11:36:00
Volgan the Living Ironbark0d 13:302019-10-20 12:28:00
Rotborn, Eater of the Dead0d 14:332019-10-20 13:31:00
Crantos, Defender of Ultimation0d 15:022019-10-20 14:00:00
Gnorb0d 15:042019-10-20 14:02:00
Detox0d 15:372019-10-20 14:35:00
Vitkros, Hydra of the Deep0d 16:092019-10-20 15:07:00
Synge, The Red Dragon0d 17:052019-10-20 16:03:00
The Emerald Assassin0d 17:142019-10-20 16:12:00
Lord Narada0d 17:322019-10-20 16:30:00
Terrance, Rebel of Rallis0d 18:142019-10-20 17:12:00
Pinosis0d 19:442019-10-20 18:42:00
Windstrike The Vile0d 21:152019-10-20 20:13:00
Straya, the Underworld Ruler0d 21:282019-10-20 20:26:00
Ormsul the Putrid0d 21:312019-10-20 20:29:00
Hackerphage, Protector of the Gateway0d 22:032019-10-20 21:01:00
Nar Zhul, Slayer of All0d 22:182019-10-20 21:16:00
Sigil, Lich of Woe0d 22:362019-10-20 21:34:00
Bolkor, the Holy Master1d 01:302019-10-21 00:28:00
Felroc, Overseer of Hellfire1d 03:122019-10-21 02:10:00
Xynak, the Arcane Master1d 03:432019-10-21 02:41:00
Lord Sibannac1d 06:142019-10-21 05:12:00
Sarcrina the Astral Priestess1d 07:222019-10-21 06:20:00
Ag Nabak the Abomination1d 10:242019-10-21 09:22:00
Traxodon the Plaguebringer1d 10:312019-10-21 09:29:00
Murderface1d 10:362019-10-21 09:34:00
Jorun the Blazing Swordsman1d 11:242019-10-21 10:22:00
Slashbrood, Devourer of the Blackness1d 14:442019-10-21 13:42:00
Amalgamated Apparition1d 20:432019-10-21 19:41:00
Lord Suka1d 23:432019-10-21 22:41:00
Numerocure, The Black Messenger of Evil1d 23:592019-10-21 22:57:00
Threk, King of Lords2d 05:132019-10-22 04:11:00
Howldroid, Tormentor of the Pit2d 08:052019-10-22 07:03:00
Grivvek, Protector of the Brood2d 08:222019-10-22 07:20:00
Q-SEC Commander2d 09:092019-10-22 08:07:00
Anvilfist2d 10:322019-10-22 09:30:00
Keeper of Nature2d 10:462019-10-22 09:44:00
Akkel the Enflamed Warrior2d 13:062019-10-22 12:04:00
Varsanor, Master of Darkness2d 14:562019-10-22 13:54:00
Dexor, Victor of Veldara2d 19:412019-10-22 18:39:00
Jazzmin, Maiden of Vitality2d 23:002019-10-22 21:58:00
Quiver, The Renegade3d 06:182019-10-23 05:16:00
Esquin, the Kinetic Master3d 07:062019-10-23 06:04:00
Kretok, Descendant of Nature3d 16:152019-10-23 15:13:00
Skybrine The Inescapable3d 16:442019-10-23 15:42:00
Gregov, Knight of the Woods3d 22:532019-10-23 21:51:00
Viserion, the Necrodragon3d 23:182019-10-23 22:16:00
Skarthul the Avenged4d 11:032019-10-24 10:01:00
Balerion, Dragon of Dread4d 11:282019-10-24 10:26:00
Karvaz, Lord of Alsayic4d 20:492019-10-24 19:47:00
Lacuste of the Swarm5d 02:352019-10-25 01:33:00
Murfax, Beast of the Caves6d 12:212019-10-26 11:19:00
Shaik, Servant of Arkron183d 16:252019-04-19 06:32:00
Rook, Hand of Arkron182d 10:572019-04-20 12:00:00
Beast of Cards30d 22:072019-09-19 00:50:00
Noxious Slug22d 09:532019-09-27 13:04:00
Jade Dragonite7d 18:392019-10-12 04:18:00